Regional Weather Roundup
Issued by NWS Goodland, KS

Home | Current Version | Previous Version | Graphics & Text | Print | Product List | Glossary On
Versions: 1 2 3 4 5 6 7 8 9 10 11 12 13 14 15 16 17 18 19 20 21 22 23 24 25 26 27 28 29 30 31 32 33 34 35 36 37 38 39 40 41 42 43 44 45 46 47 48 49 50
000
ASUS43 KGLD 240259
RWRGLD

GOODLAND FORECAST AREA HOURLY WEATHER ROUNDUP
NATIONAL WEATHER SERVICE GOODLAND KS
900 PM MDT THU MAR 23 2017

...OFFICIAL OBSERVATIONS...

CITY           SKY/WX    TMP DP  RH WIND       PRES   REMARKS
GOODLAND KS    CLOUDY    68  41  37 S31G44    29.57R
HILL CITY KS   LGT RAIN  64  53  67 S9        29.61F
IMPERIAL NEB   PTCLDY    65  43  44 E12       29.49S
MCCOOK NEB     CLOUDY    67  46  47 S26G37    29.54R
AKRON CO       PTCLDY    57  36  45 N36G53    29.62R
BURLINGTON CO  CLOUDY    68  25  19 SE23      29.57R
LIMON CO       CLOUDY    44  19  36 N6        29.59R
$$

...UNOFFICIAL OBSERVATIONS...

CITY           SKY/WX    TMP DP  RH WIND       PRES   REMARKS
LENORA KS        N/A     65  32  29 SE8G18      N/A
NORTON KS      MOCLDY    57  48  72 SE10G18   29.59F
SHARON SPRINGS   N/A     61  45  54 SE18G25     N/A
TRENTON NEB      N/A     67  32  27 S18G25      N/A
YUMA CO        FAIR      59  34  38 N24G40    29.56R
$$




USA.gov is the U.S. government's official web portal to all federal, state and local government web resources and services.